EXS9JR LGTS-EGCC

Flight info

Callsign EXS9JR
Flight time 3h 22m
Altitude 34000
Route EDASI N146 BEKVA DCT MAVAR DCT PUL DCT ROTAR DCT TNT/N0449F360 DCT RESIA DCT ELMUR DCT RIPUS DCT DITON DCT HOC DCT LUL DCT RLP DCT ROTSI DCT KOTUN DCT AMAXA DCT VESAN DCT RATUK DCT SOVAT L613 SANDY UN57 WELIN T420 ELVOS
Aircraft A321/M-SDE2E3FGHIJ3J4J5J7M3P2RWXY/LB1D1

Departure

Time 2026-05-05 14:38
Airport Thessaloniki Macedonia International Airport (LGTS)

Arrival

Time 2026-05-05 18:00
Airport Manchester Airport (EGCC)
Time Latitude Longitude Altitude Speed Heading
2026-05-05 13:53 40.52275 22.97616 29 ft 0 kts 45°
2026-05-05 14:28 40.52270 22.97609 28 ft 3 kts 45°
2026-05-05 14:28 40.52256 22.97590 28 ft 1 kts 45°
2026-05-05 14:28 40.52243 22.97571 28 ft 3 kts 80°
2026-05-05 14:28 40.52247 22.97555 28 ft 3 kts 135°
2026-05-05 14:29 40.52261 22.97537 28 ft 0 kts 135°
2026-05-05 14:31 40.52258 22.97540 28 ft 3 kts 135°
2026-05-05 14:32 40.52241 22.97562 28 ft 6 kts 135°
2026-05-05 14:32 40.52213 22.97599 28 ft 5 kts 135°
2026-05-05 14:32 40.52176 22.97637 28 ft 10 kts 149°
2026-05-05 14:32 40.52123 22.97687 28 ft 9 kts 137°
2026-05-05 14:33 40.52083 22.97741 29 ft 7 kts 134°
2026-05-05 14:33 40.52040 22.97798 29 ft 7 kts 134°
2026-05-05 14:33 40.51998 22.97870 29 ft 10 kts 111°
2026-05-05 14:33 40.51985 22.97929 29 ft 9 kts 104°
2026-05-05 14:34 40.51971 22.98005 29 ft 8 kts 103°
2026-05-05 14:34 40.51960 22.98068 29 ft 8 kts 104°
2026-05-05 14:34 40.51939 22.98176 29 ft 15 kts 103°
2026-05-05 14:34 40.51914 22.98305 28 ft 14 kts 104°
2026-05-05 14:35 40.51893 22.98422 28 ft 12 kts 103°
2026-05-05 14:35 40.51874 22.98526 28 ft 11 kts 103°
2026-05-05 14:35 40.51857 22.98620 28 ft 10 kts 103°
2026-05-05 14:35 40.51835 22.98695 28 ft 7 kts 139°
2026-05-05 14:36 40.51788 22.98705 28 ft 6 kts 185°
2026-05-05 14:36 40.51751 22.98694 29 ft 6 kts 194°
2026-05-05 14:36 40.51696 22.98676 29 ft 8 kts 194°
2026-05-05 14:36 40.51685 22.98628 28 ft 6 kts 280°
2026-05-05 14:37 40.51687 22.98620 28 ft 1 kts 283°
2026-05-05 14:37 40.51708 22.98501 28 ft 41 kts 283°
2026-05-05 14:37 40.51830 22.97851 29 ft 103 kts 284°
2026-05-05 14:37 40.52045 22.96721 30 ft 150 kts 284°
2026-05-05 14:38 40.52320 22.95267 271 ft 164 kts 283°
2026-05-05 14:38 40.52602 22.93857 940 ft 160 kts 283°
2026-05-05 14:38 40.52916 22.92436 1429 ft 166 kts 285°
2026-05-05 14:38 40.53260 22.90893 1601 ft 187 kts 284°
2026-05-05 14:39 40.53644 22.89156 1752 ft 209 kts 284°
2026-05-05 14:39 40.54064 22.87231 1867 ft 231 kts 285°
2026-05-05 14:39 40.54530 22.85094 2152 ft 251 kts 284°
2026-05-05 14:39 40.55012 22.82874 2827 ft 254 kts 285°
2026-05-05 14:40 40.55303 22.80585 3555 ft 257 kts 264°
2026-05-05 14:40 40.54642 22.78445 4204 ft 264 kts 230°
2026-05-05 14:40 40.53243 22.76806 4893 ft 270 kts 219°
2026-05-05 14:40 40.51724 22.75321 5602 ft 273 kts 217°
2026-05-05 14:41 40.50255 22.73783 6299 ft 275 kts 229°
2026-05-05 14:41 40.49272 22.71651 6943 ft 275 kts 253°
2026-05-05 14:41 40.49051 22.69175 7591 ft 276 kts 278°
2026-05-05 14:41 40.49641 22.66791 8245 ft 277 kts 301°
2026-05-05 14:42 40.50644 22.64618 8931 ft 279 kts 302°
2026-05-05 14:42 40.51652 22.62428 9611 ft 282 kts 302°
2026-05-05 14:42 40.52671 22.60204 10238 ft 286 kts 302°
2026-05-05 14:42 40.53735 22.57883 10399 ft 307 kts 302°
2026-05-05 14:43 40.54874 22.55393 10528 ft 328 kts 302°
2026-05-05 14:43 40.56070 22.52772 10895 ft 338 kts 302°
2026-05-05 14:43 40.57285 22.50098 11476 ft 343 kts 302°
2026-05-05 14:43 40.58512 22.47392 12101 ft 345 kts 302°
2026-05-05 14:44 40.59746 22.44671 12717 ft 348 kts 302°
2026-05-05 14:44 40.60992 22.41918 13318 ft 352 kts 302°
2026-05-05 14:44 40.62235 22.39174 13907 ft 355 kts 303°
2026-05-05 14:44 40.63520 22.36337 14465 ft 358 kts 303°
2026-05-05 14:45 40.64780 22.33552 15009 ft 360 kts 303°
2026-05-05 14:45 40.66063 22.30716 15582 ft 362 kts 303°
2026-05-05 14:45 40.67356 22.27849 16123 ft 365 kts 303°
2026-05-05 14:45 40.68654 22.24968 16668 ft 367 kts 303°
2026-05-05 14:46 40.69963 22.22059 17204 ft 369 kts 303°
2026-05-05 14:46 40.71275 22.19138 17762 ft 372 kts 303°
2026-05-05 14:46 40.72598 22.16196 18270 ft 374 kts 303°
2026-05-05 14:46 40.73932 22.13237 18727 ft 376 kts 303°
2026-05-05 14:47 40.75269 22.10268 19168 ft 378 kts 302°
2026-05-05 14:47 40.76613 22.07277 19619 ft 380 kts 302°
2026-05-05 14:47 40.77962 22.04268 20087 ft 381 kts 302°
2026-05-05 14:47 40.79311 22.01258 20534 ft 382 kts 302°
2026-05-05 14:48 40.80668 21.98232 20999 ft 384 kts 302°
2026-05-05 14:48 40.82029 21.95192 21445 ft 385 kts 302°
2026-05-05 14:48 40.83394 21.92137 21902 ft 387 kts 302°
2026-05-05 14:48 40.84761 21.89070 22336 ft 388 kts 302°
2026-05-05 14:49 40.86132 21.85993 22761 ft 390 kts 302°
2026-05-05 14:49 40.87509 21.82901 23174 ft 390 kts 302°
2026-05-05 14:49 40.88886 21.79802 23559 ft 393 kts 302°
2026-05-05 14:49 40.90272 21.76679 23893 ft 395 kts 302°
2026-05-05 14:50 40.91660 21.73547 24247 ft 396 kts 302°
2026-05-05 14:50 40.93044 21.70444 24612 ft 397 kts 304°
2026-05-05 14:50 40.94731 21.67499 24960 ft 397 kts 311°
2026-05-05 14:50 40.96500 21.64763 25318 ft 398 kts 311°
2026-05-05 14:51 40.98297 21.61976 25673 ft 398 kts 311°
2026-05-05 14:51 41.00095 21.59179 26007 ft 399 kts 311°
2026-05-05 14:51 41.01894 21.56376 26355 ft 400 kts 311°
2026-05-05 14:51 41.03693 21.53567 26723 ft 400 kts 310°
2026-05-05 14:52 41.05494 21.50749 27075 ft 401 kts 310°
2026-05-05 14:52 41.07295 21.47927 27413 ft 402 kts 310°
2026-05-05 14:52 41.09099 21.45098 27746 ft 402 kts 310°
2026-05-05 14:52 41.10905 21.42258 28067 ft 403 kts 310°
2026-05-05 14:53 41.12714 21.39419 28375 ft 404 kts 310°
2026-05-05 14:53 41.14529 21.36571 28687 ft 404 kts 310°
2026-05-05 14:53 41.16346 21.33715 28994 ft 405 kts 310°
2026-05-05 14:53 41.18165 21.30857 29280 ft 406 kts 310°
2026-05-05 14:54 41.19989 21.27986 29584 ft 407 kts 310°
2026-05-05 14:54 41.21814 21.25112 29890 ft 408 kts 310°
2026-05-05 14:54 41.23644 21.22227 30231 ft 408 kts 310°
2026-05-05 14:54 41.25467 21.19350 30588 ft 406 kts 310°
2026-05-05 14:55 41.27275 21.16488 30951 ft 404 kts 310°
2026-05-05 14:55 41.29076 21.13634 31304 ft 402 kts 310°
2026-05-05 14:55 41.30869 21.10790 31653 ft 401 kts 309°
2026-05-05 14:55 41.32658 21.07955 32009 ft 399 kts 309°
2026-05-05 14:56 41.34435 21.05142 32377 ft 397 kts 309°
2026-05-05 14:56 41.36204 21.02336 32762 ft 394 kts 309°
2026-05-05 14:56 41.37939 20.99582 33146 ft 391 kts 309°
2026-05-05 14:56 41.39680 20.96815 33545 ft 389 kts 309°
2026-05-05 14:57 41.41414 20.94058 33937 ft 386 kts 309°
2026-05-05 14:57 41.43131 20.91325 34047 ft 382 kts 308°
2026-05-05 14:57 41.46500 20.85953 34061 ft 375 kts 308°
2026-05-05 14:58 41.49843 20.80607 34046 ft 375 kts 309°
2026-05-05 14:58 41.53181 20.75241 34052 ft 379 kts 307°
2026-05-05 14:59 41.56560 20.69811 34059 ft 381 kts 308°
2026-05-05 14:59 41.59950 20.64366 34056 ft 381 kts 307°
2026-05-05 15:00 41.62769 20.59828 34061 ft 381 kts 307°
2026-05-05 15:00 41.66720 20.53446 34060 ft 381 kts 307°
2026-05-05 15:01 41.69931 20.47815 34061 ft 380 kts 304°
2026-05-05 15:01 41.72983 20.42094 34055 ft 380 kts 303°
2026-05-05 15:02 41.76044 20.36327 34060 ft 380 kts 304°
2026-05-05 15:02 41.79145 20.30572 34070 ft 381 kts 304°
2026-05-05 15:03 41.82246 20.24821 34062 ft 381 kts 304°
2026-05-05 15:03 41.85358 20.19024 34053 ft 384 kts 304°
2026-05-05 15:04 41.88497 20.13187 34052 ft 386 kts 304°
2026-05-05 15:04 41.91646 20.07327 34060 ft 387 kts 304°
2026-05-05 15:05 41.96370 19.98496 34081 ft 388 kts 304°
2026-05-05 15:06 41.99512 19.92605 34086 ft 388 kts 304°
2026-05-05 15:06 42.02646 19.86708 34088 ft 388 kts 303°
2026-05-05 15:07 42.05774 19.80806 34091 ft 387 kts 303°
2026-05-05 15:07 42.08899 19.74903 34085 ft 387 kts 303°
2026-05-05 15:08 42.12006 19.69039 34088 ft 388 kts 303°
2026-05-05 15:08 42.15148 19.63094 34075 ft 391 kts 304°
2026-05-05 15:09 42.18311 19.57108 34068 ft 393 kts 304°
2026-05-05 15:09 42.21476 19.51089 34066 ft 394 kts 304°
2026-05-05 15:10 42.24644 19.45050 34062 ft 395 kts 303°
2026-05-05 15:10 42.27805 19.39007 34091 ft 393 kts 303°
2026-05-05 15:11 42.30954 19.32987 34089 ft 392 kts 303°
2026-05-05 15:11 42.34097 19.26976 34090 ft 391 kts 303°
2026-05-05 15:12 42.37232 19.20961 34090 ft 391 kts 303°
2026-05-05 15:12 42.40360 19.14937 34105 ft 391 kts 303°
2026-05-05 15:13 42.43495 19.08884 34064 ft 394 kts 303°
2026-05-05 15:13 42.46642 19.02811 34075 ft 394 kts 303°
2026-05-05 15:14 42.49790 18.96724 34087 ft 394 kts 303°
2026-05-05 15:14 42.52926 18.90619 34095 ft 394 kts 303°
2026-05-05 15:15 42.56045 18.84557 34107 ft 395 kts 303°
2026-05-05 15:15 42.59182 18.78453 34104 ft 395 kts 303°
2026-05-05 15:16 42.62312 18.72340 34109 ft 394 kts 302°
2026-05-05 15:16 42.65438 18.66230 34111 ft 394 kts 302°
2026-05-05 15:17 42.68565 18.60122 34113 ft 394 kts 302°
2026-05-05 15:17 42.71684 18.53993 34103 ft 395 kts 302°
2026-05-05 15:18 42.74806 18.47841 34094 ft 396 kts 302°
2026-05-05 15:18 42.77936 18.41669 34094 ft 397 kts 302°
2026-05-05 15:19 42.81073 18.35470 34096 ft 397 kts 302°
2026-05-05 15:19 42.84205 18.29265 34098 ft 398 kts 302°
2026-05-05 15:20 42.87343 18.23055 34098 ft 398 kts 302°
2026-05-05 15:20 42.90474 18.16821 34100 ft 398 kts 302°
2026-05-05 15:21 42.93596 18.10590 34091 ft 398 kts 302°
2026-05-05 15:21 42.96720 18.04351 34092 ft 398 kts 302°
2026-05-05 15:22 42.99843 17.98107 34097 ft 398 kts 302°
2026-05-05 15:22 43.02965 17.91844 34092 ft 399 kts 302°
2026-05-05 15:23 43.06075 17.85598 34096 ft 400 kts 302°
2026-05-05 15:23 43.09205 17.79299 34083 ft 401 kts 302°
2026-05-05 15:24 43.12335 17.72989 34079 ft 401 kts 302°
2026-05-05 15:24 43.15463 17.66664 34078 ft 401 kts 301°
2026-05-05 15:25 43.18062 17.61393 34077 ft 402 kts 301°
2026-05-05 15:25 43.21190 17.55036 34078 ft 402 kts 301°
2026-05-05 15:26 43.24315 17.48684 34077 ft 402 kts 302°
2026-05-05 15:26 43.27444 17.42326 34088 ft 402 kts 301°
2026-05-05 15:27 43.30560 17.35951 34080 ft 403 kts 301°
2026-05-05 15:27 43.33676 17.29558 34080 ft 403 kts 301°
2026-05-05 15:28 43.36795 17.23160 34082 ft 403 kts 301°
2026-05-05 15:28 43.39903 17.16765 34080 ft 402 kts 301°
2026-05-05 15:29 43.42995 17.10399 34078 ft 402 kts 301°
2026-05-05 15:29 43.46095 17.03994 34077 ft 402 kts 301°
2026-05-05 15:30 43.49185 16.97582 34081 ft 402 kts 301°
2026-05-05 15:30 43.52272 16.91168 34088 ft 401 kts 301°
2026-05-05 15:31 43.55353 16.84757 34094 ft 401 kts 301°
2026-05-05 15:31 43.58436 16.78348 34091 ft 401 kts 301°
2026-05-05 15:32 43.61513 16.71933 34093 ft 401 kts 301°
2026-05-05 15:32 43.64586 16.65509 34089 ft 401 kts 301°
2026-05-05 15:33 43.67648 16.59074 34091 ft 401 kts 301°
2026-05-05 15:33 43.70711 16.52630 34092 ft 401 kts 301°
2026-05-05 15:34 43.73777 16.46178 34095 ft 401 kts 301°
2026-05-05 15:34 43.76837 16.39725 34096 ft 401 kts 301°
2026-05-05 15:35 43.79886 16.33263 34096 ft 401 kts 301°
2026-05-05 15:35 43.82917 16.26826 34095 ft 402 kts 301°
2026-05-05 15:36 43.85973 16.20344 34078 ft 402 kts 301°
2026-05-05 15:36 43.89030 16.13853 34078 ft 402 kts 301°
2026-05-05 15:37 43.92079 16.07339 34078 ft 402 kts 300°
2026-05-05 15:37 43.95120 16.00825 34078 ft 402 kts 300°
2026-05-05 15:38 43.98159 15.94298 34073 ft 403 kts 300°
2026-05-05 15:38 44.01209 15.87753 34072 ft 404 kts 300°
2026-05-05 15:39 44.04251 15.81199 34077 ft 404 kts 300°
2026-05-05 15:39 44.07295 15.74625 34075 ft 404 kts 300°
2026-05-05 15:40 44.10338 15.68045 34065 ft 405 kts 300°
2026-05-05 15:40 44.13382 15.61451 34068 ft 405 kts 300°
2026-05-05 15:41 44.16423 15.54845 34076 ft 405 kts 300°
2026-05-05 15:41 44.19440 15.48267 34071 ft 406 kts 300°
2026-05-05 15:42 44.22470 15.41640 34085 ft 405 kts 300°
2026-05-05 15:42 44.25501 15.34996 34066 ft 406 kts 300°
2026-05-05 15:43 44.28538 15.28333 34057 ft 407 kts 300°
2026-05-05 15:43 44.31575 15.21658 34053 ft 407 kts 300°
2026-05-05 15:44 44.34612 15.14972 34070 ft 408 kts 299°
2026-05-05 15:44 44.37645 15.08277 34049 ft 408 kts 299°
2026-05-05 15:45 44.40677 15.01567 34055 ft 408 kts 299°
2026-05-05 15:45 44.43706 14.94835 34057 ft 409 kts 299°
2026-05-05 15:46 44.46739 14.88100 34055 ft 409 kts 299°
2026-05-05 15:46 44.49747 14.81387 34046 ft 410 kts 299°
2026-05-05 15:47 44.52768 14.74623 34039 ft 410 kts 299°
2026-05-05 15:47 44.55796 14.67853 34039 ft 410 kts 299°
2026-05-05 15:48 44.58820 14.61071 34039 ft 410 kts 299°
2026-05-05 15:48 44.61836 14.54280 34046 ft 410 kts 299°
2026-05-05 15:49 44.64846 14.47474 34036 ft 410 kts 298°
2026-05-05 15:49 44.67865 14.40659 34036 ft 411 kts 298°
2026-05-05 15:50 44.70872 14.33829 34027 ft 411 kts 298°
2026-05-05 15:50 44.73883 14.26989 34027 ft 411 kts 298°
2026-05-05 15:51 44.76887 14.20145 34019 ft 411 kts 298°
2026-05-05 15:51 44.79870 14.13326 34024 ft 412 kts 298°
2026-05-05 15:52 44.82876 14.06446 34014 ft 413 kts 298°
2026-05-05 15:52 44.85880 13.99553 34015 ft 413 kts 298°
2026-05-05 15:53 44.88878 13.92634 34020 ft 414 kts 298°
2026-05-05 15:53 44.91816 13.85647 34022 ft 414 kts 296°
2026-05-05 15:54 44.94665 13.78586 34031 ft 414 kts 296°
2026-05-05 15:54 44.97505 13.71507 34019 ft 414 kts 296°
2026-05-05 15:55 45.00364 13.64427 34003 ft 415 kts 296°
2026-05-05 15:55 45.03230 13.57357 33989 ft 415 kts 296°
2026-05-05 15:56 45.06087 13.50265 34004 ft 415 kts 296°
2026-05-05 15:56 45.08943 13.43154 33987 ft 416 kts 296°
2026-05-05 15:57 45.11793 13.36025 33984 ft 416 kts 296°
2026-05-05 15:57 45.14631 13.28936 33979 ft 417 kts 296°
2026-05-05 15:58 45.17486 13.21783 33978 ft 416 kts 296°
2026-05-05 15:58 45.20326 13.14638 33992 ft 416 kts 295°
2026-05-05 15:59 45.23160 13.07483 33988 ft 416 kts 295°
2026-05-05 15:59 45.25985 13.00325 33968 ft 416 kts 295°
2026-05-05 16:00 45.28878 12.93203 33968 ft 417 kts 297°
2026-05-05 16:00 45.31881 12.86157 33969 ft 417 kts 297°
2026-05-05 16:01 45.34891 12.79104 33982 ft 417 kts 297°
2026-05-05 16:01 45.37870 12.72018 33985 ft 417 kts 296°
2026-05-05 16:02 45.40823 12.64911 33991 ft 418 kts 296°
2026-05-05 16:02 45.43784 12.57793 33995 ft 418 kts 296°
2026-05-05 16:03 45.46723 12.50716 34020 ft 418 kts 296°
2026-05-05 16:03 45.49670 12.43591 34017 ft 417 kts 296°
2026-05-05 16:04 45.52613 12.36448 34006 ft 418 kts 296°
2026-05-05 16:04 45.55559 12.29307 34000 ft 418 kts 296°
2026-05-05 16:05 45.58505 12.22154 33998 ft 418 kts 296°
2026-05-05 16:05 45.61438 12.14985 34042 ft 418 kts 296°
2026-05-05 16:06 45.64371 12.07798 34033 ft 419 kts 296°
2026-05-05 16:06 45.67305 12.00601 34033 ft 419 kts 296°
2026-05-05 16:07 45.70242 11.93389 34033 ft 419 kts 296°
2026-05-05 16:07 45.73171 11.86173 34027 ft 419 kts 295°
2026-05-05 16:08 45.76092 11.78955 34043 ft 419 kts 295°
2026-05-05 16:08 45.79010 11.71716 34025 ft 419 kts 295°
2026-05-05 16:09 45.81923 11.64473 34024 ft 420 kts 295°
2026-05-05 16:09 45.84843 11.57224 34020 ft 420 kts 295°
2026-05-05 16:10 45.87757 11.49961 34019 ft 420 kts 295°
2026-05-05 16:10 45.90639 11.42740 34005 ft 419 kts 295°
2026-05-05 16:11 45.93531 11.35469 34007 ft 420 kts 295°
2026-05-05 16:12 45.99314 11.20903 34005 ft 419 kts 295°
2026-05-05 16:13 46.06735 11.02783 34020 ft 422 kts 297°
2026-05-05 16:13 46.09837 10.95600 34020 ft 423 kts 297°
2026-05-05 16:14 46.15967 10.81122 34010 ft 423 kts 296°
2026-05-05 16:15 46.22038 10.66642 34006 ft 423 kts 296°
2026-05-05 16:16 46.28111 10.52098 33990 ft 423 kts 296°
2026-05-05 16:17 46.32651 10.41180 34013 ft 423 kts 295°
2026-05-05 16:18 46.36676 10.31468 33976 ft 422 kts 295°
2026-05-05 16:19 46.41203 10.20511 33973 ft 422 kts 295°
2026-05-05 16:19 46.45710 10.09539 34002 ft 422 kts 294°
2026-05-05 16:20 46.52939 9.95936 33986 ft 429 kts 304°
2026-05-05 16:22 46.62825 9.79657 33983 ft 430 kts 303°
2026-05-05 16:23 46.70679 9.66631 33973 ft 428 kts 303°
2026-05-05 16:23 46.76567 9.56844 33931 ft 427 kts 303°
2026-05-05 16:24 46.80473 9.50316 33934 ft 427 kts 303°
2026-05-05 16:25 46.86325 9.40494 33914 ft 428 kts 303°
2026-05-05 16:25 46.92189 9.30637 33883 ft 429 kts 303°
2026-05-05 16:26 47.00013 9.17437 33870 ft 430 kts 303°
2026-05-05 16:27 47.03896 9.10839 33860 ft 431 kts 303°
2026-05-05 16:27 47.07817 9.04177 33886 ft 432 kts 304°
2026-05-05 16:28 47.11745 8.97478 33854 ft 433 kts 304°
2026-05-05 16:28 47.15428 8.90549 33850 ft 426 kts 294°
2026-05-05 16:29 47.17744 8.82700 33853 ft 417 kts 284°
2026-05-05 16:29 47.19773 8.74700 33862 ft 418 kts 284°
2026-05-05 16:30 47.21815 8.66676 33899 ft 420 kts 285°
2026-05-05 16:30 47.23846 8.58622 33880 ft 421 kts 285°
2026-05-05 16:31 47.25888 8.50538 33877 ft 422 kts 285°
2026-05-05 16:31 47.27936 8.42434 33857 ft 422 kts 285°
2026-05-05 16:32 47.29980 8.34319 33856 ft 423 kts 285°
2026-05-05 16:32 47.32012 8.26183 33873 ft 424 kts 285°
2026-05-05 16:33 47.34040 8.17987 33852 ft 426 kts 285°
2026-05-05 16:33 47.36079 8.09756 33847 ft 428 kts 285°
2026-05-05 16:34 47.38124 8.01508 33845 ft 429 kts 285°
2026-05-05 16:34 47.40157 7.93238 33855 ft 429 kts 285°
2026-05-05 16:35 47.42172 7.85011 33861 ft 429 kts 285°
2026-05-05 16:35 47.44190 7.76717 33865 ft 429 kts 285°
2026-05-05 16:36 47.46202 7.68413 33863 ft 429 kts 285°
2026-05-05 16:36 47.47773 7.59965 33864 ft 426 kts 279°
2026-05-05 16:37 47.49199 7.51460 33890 ft 426 kts 280°
2026-05-05 16:37 47.50616 7.42950 33876 ft 427 kts 280°
2026-05-05 16:38 47.52028 7.34411 33870 ft 427 kts 280°
2026-05-05 16:38 47.53437 7.25869 33864 ft 428 kts 279°
2026-05-05 16:39 47.54841 7.17316 33858 ft 428 kts 279°
2026-05-05 16:39 47.56244 7.08750 33874 ft 428 kts 280°
2026-05-05 16:40 47.57642 7.00183 33867 ft 428 kts 280°
2026-05-05 16:40 47.59029 6.91603 33860 ft 428 kts 279°
2026-05-05 16:41 47.60394 6.83078 33862 ft 429 kts 279°
2026-05-05 16:41 47.61543 6.75853 33861 ft 430 kts 279°
2026-05-05 16:42 47.63148 6.65813 33868 ft 432 kts 280°
2026-05-05 16:42 47.64528 6.57152 33873 ft 431 kts 280°
2026-05-05 16:43 47.65891 6.48480 33883 ft 432 kts 279°
2026-05-05 16:43 47.67245 6.39798 33884 ft 432 kts 279°
2026-05-05 16:44 47.68592 6.31125 33859 ft 431 kts 279°
2026-05-05 16:44 47.70163 6.22501 33860 ft 434 kts 284°
2026-05-05 16:45 47.72056 6.13981 33857 ft 435 kts 286°
2026-05-05 16:45 47.73958 6.05502 33849 ft 435 kts 285°
2026-05-05 16:46 47.75793 5.96930 33852 ft 436 kts 284°
2026-05-05 16:46 47.77579 5.88327 33873 ft 436 kts 284°
2026-05-05 16:47 47.79357 5.79706 33862 ft 436 kts 284°
2026-05-05 16:47 47.81147 5.71093 33852 ft 436 kts 284°
2026-05-05 16:48 47.82947 5.62462 33853 ft 437 kts 284°
2026-05-05 16:48 47.84736 5.53823 33846 ft 436 kts 284°
2026-05-05 16:49 47.86505 5.45179 33847 ft 437 kts 284°
2026-05-05 16:49 47.88274 5.36493 33830 ft 439 kts 284°
2026-05-05 16:50 47.90196 5.27839 33822 ft 442 kts 292°
2026-05-05 16:50 47.93553 5.20126 33819 ft 448 kts 310°
2026-05-05 16:51 47.97760 5.13240 33819 ft 450 kts 310°
2026-05-05 16:51 48.01962 5.06304 33830 ft 450 kts 310°
2026-05-05 16:52 48.06154 4.99345 33817 ft 451 kts 310°
2026-05-05 16:52 48.10325 4.92412 33811 ft 452 kts 310°
2026-05-05 16:53 48.14531 4.85416 33816 ft 452 kts 310°
2026-05-05 16:53 48.18730 4.78406 33826 ft 451 kts 310°
2026-05-05 16:54 48.22921 4.71400 33825 ft 451 kts 310°
2026-05-05 16:54 48.27102 4.64387 33829 ft 451 kts 310°
2026-05-05 16:55 48.31281 4.57363 33814 ft 451 kts 310°
2026-05-05 16:55 48.35456 4.50328 33805 ft 451 kts 311°
2026-05-05 16:56 48.39635 4.43276 33797 ft 452 kts 311°
2026-05-05 16:56 48.43813 4.36200 33796 ft 452 kts 311°
2026-05-05 16:57 48.47980 4.29104 33803 ft 453 kts 311°
2026-05-05 16:57 48.52151 4.21978 33797 ft 453 kts 311°
2026-05-05 16:58 48.56326 4.14842 33796 ft 454 kts 311°
2026-05-05 16:58 48.60475 4.07744 33780 ft 455 kts 311°
2026-05-05 16:59 48.64661 4.00555 33781 ft 456 kts 311°
2026-05-05 16:59 48.68849 3.93333 33785 ft 457 kts 311°
2026-05-05 17:00 48.73229 3.86360 33783 ft 457 kts 321°
2026-05-05 17:00 48.78355 3.80687 33786 ft 457 kts 325°
2026-05-05 17:01 48.83515 3.75064 33792 ft 457 kts 325°
2026-05-05 17:01 48.88668 3.69408 33792 ft 457 kts 325°
2026-05-05 17:02 48.93823 3.63740 33797 ft 457 kts 325°
2026-05-05 17:02 48.98977 3.58075 33796 ft 457 kts 325°
2026-05-05 17:03 49.04123 3.52383 33794 ft 458 kts 324°
2026-05-05 17:03 49.09249 3.46705 33803 ft 459 kts 325°
2026-05-05 17:04 49.14412 3.40979 33807 ft 458 kts 325°
2026-05-05 17:04 49.19563 3.35243 33807 ft 458 kts 324°
2026-05-05 17:05 49.24713 3.29493 33811 ft 458 kts 324°
2026-05-05 17:05 49.29867 3.23731 33806 ft 459 kts 324°
2026-05-05 17:06 49.35016 3.17954 33812 ft 459 kts 324°
2026-05-05 17:06 49.40172 3.12159 33820 ft 459 kts 324°
2026-05-05 17:07 49.45317 3.06354 33826 ft 459 kts 324°
2026-05-05 17:07 49.50467 3.00530 33825 ft 459 kts 324°
2026-05-05 17:08 49.54741 2.95684 33827 ft 459 kts 324°
2026-05-05 17:08 49.59878 2.89843 33829 ft 459 kts 324°
2026-05-05 17:09 49.65846 2.83037 33831 ft 459 kts 324°
2026-05-05 17:09 49.70979 2.77166 33836 ft 459 kts 324°
2026-05-05 17:10 49.75279 2.72245 33828 ft 459 kts 324°
2026-05-05 17:10 49.80422 2.66395 33859 ft 459 kts 324°
2026-05-05 17:11 49.85557 2.60726 33869 ft 458 kts 325°
2026-05-05 17:11 49.90750 2.55022 33870 ft 457 kts 325°
2026-05-05 17:12 49.95911 2.49266 33868 ft 456 kts 324°
2026-05-05 17:12 50.01061 2.43498 33860 ft 456 kts 324°
2026-05-05 17:13 50.06214 2.37726 33860 ft 456 kts 324°
2026-05-05 17:13 50.11357 2.31939 33861 ft 456 kts 324°
2026-05-05 17:14 50.16502 2.26137 33877 ft 456 kts 324°
2026-05-05 17:14 50.21627 2.20334 33875 ft 455 kts 324°
2026-05-05 17:15 50.26741 2.14530 33880 ft 454 kts 324°
2026-05-05 17:15 50.31851 2.08730 33880 ft 454 kts 324°
2026-05-05 17:16 50.36951 2.02931 33879 ft 453 kts 323°
2026-05-05 17:16 50.41859 1.96722 33869 ft 453 kts 318°
2026-05-05 17:17 50.46555 1.90101 33870 ft 453 kts 317°
2026-05-05 17:17 50.51210 1.83515 33897 ft 454 kts 318°
2026-05-05 17:18 50.55959 1.76981 33904 ft 453 kts 319°
2026-05-05 17:18 50.60726 1.70490 33899 ft 453 kts 319°
2026-05-05 17:19 50.65475 1.63966 33888 ft 453 kts 318°
2026-05-05 17:19 50.70208 1.57415 33903 ft 453 kts 317°
2026-05-05 17:20 50.74943 1.50850 33914 ft 452 kts 317°
2026-05-05 17:20 50.79657 1.44290 33916 ft 452 kts 317°
2026-05-05 17:21 50.84376 1.37720 33931 ft 452 kts 317°
2026-05-05 17:22 50.91429 1.27857 33954 ft 450 kts 317°
2026-05-05 17:22 50.96114 1.21275 33960 ft 449 kts 317°
2026-05-05 17:23 51.00789 1.14708 33961 ft 448 kts 317°
2026-05-05 17:23 51.05451 1.08132 33959 ft 448 kts 317°
2026-05-05 17:24 51.10027 1.01411 33957 ft 447 kts 314°
2026-05-05 17:24 51.14456 0.94459 33965 ft 447 kts 313°
2026-05-05 17:25 51.18854 0.87472 34029 ft 445 kts 314°
2026-05-05 17:25 51.23263 0.80571 34052 ft 444 kts 314°
2026-05-05 17:26 51.27678 0.73688 34067 ft 443 kts 314°
2026-05-05 17:26 51.32046 0.66858 34070 ft 442 kts 314°
2026-05-05 17:26 51.34239 0.63416 33959 ft 442 kts 314°
2026-05-05 17:27 51.36458 0.59927 33961 ft 441 kts 314°
2026-05-05 17:27 51.40787 0.53087 33964 ft 440 kts 313°
2026-05-05 17:28 51.45135 0.46201 33974 ft 439 kts 314°
2026-05-05 17:28 51.49466 0.39326 33971 ft 437 kts 313°
2026-05-05 17:29 51.53784 0.32470 33965 ft 436 kts 314°
2026-05-05 17:29 51.58094 0.25615 33964 ft 435 kts 313°
2026-05-05 17:30 51.62382 0.18742 33956 ft 435 kts 313°
2026-05-05 17:30 51.66655 0.11859 33953 ft 434 kts 313°
2026-05-05 17:31 51.70896 0.04916 33952 ft 434 kts 312°
2026-05-05 17:31 51.75116 -0.02049 34025 ft 434 kts 312°
2026-05-05 17:32 51.79331 -0.09035 34018 ft 434 kts 312°
2026-05-05 17:32 51.83555 -0.16033 33966 ft 435 kts 311°
2026-05-05 17:33 51.87787 -0.23046 33962 ft 436 kts 311°
2026-05-05 17:33 51.92028 -0.30090 33959 ft 437 kts 311°
2026-05-05 17:34 51.96235 -0.37108 33959 ft 437 kts 311°
2026-05-05 17:34 52.00465 -0.44198 33956 ft 437 kts 311°
2026-05-05 17:34 52.02583 -0.47755 33752 ft 438 kts 311°
2026-05-05 17:35 52.04705 -0.51321 33480 ft 439 kts 311°
2026-05-05 17:35 52.06826 -0.54893 33197 ft 439 kts 311°
2026-05-05 17:35 52.08947 -0.58467 32932 ft 440 kts 311°
2026-05-05 17:35 52.11073 -0.62051 32622 ft 438 kts 311°
2026-05-05 17:36 52.13182 -0.65606 32055 ft 436 kts 310°
2026-05-05 17:36 52.15279 -0.69152 31518 ft 433 kts 310°
2026-05-05 17:36 52.17364 -0.72681 30978 ft 430 kts 310°
2026-05-05 17:36 52.19427 -0.76185 30449 ft 428 kts 310°
2026-05-05 17:37 52.21481 -0.79679 29905 ft 426 kts 310°
2026-05-05 17:37 52.22834 -0.81985 29516 ft 423 kts 310°
2026-05-05 17:37 52.25781 -0.86209 28838 ft 422 kts 322°
2026-05-05 17:37 52.28267 -0.88740 28331 ft 420 kts 326°
2026-05-05 17:38 52.30752 -0.91197 27807 ft 416 kts 325°
2026-05-05 17:38 52.33217 -0.93644 27309 ft 412 kts 325°
2026-05-05 17:38 52.35649 -0.96065 26822 ft 408 kts 325°
2026-05-05 17:38 52.38061 -0.98473 26344 ft 403 kts 325°
2026-05-05 17:39 52.40409 -1.00821 25887 ft 400 kts 326°
2026-05-05 17:39 52.42768 -1.03185 25432 ft 395 kts 326°
2026-05-05 17:39 52.45102 -1.05530 24987 ft 391 kts 326°
2026-05-05 17:39 52.47406 -1.07840 24555 ft 387 kts 326°
2026-05-05 17:40 52.49691 -1.10128 24130 ft 383 kts 326°
2026-05-05 17:40 52.51950 -1.12396 23696 ft 379 kts 326°
2026-05-05 17:40 52.54187 -1.14648 23219 ft 375 kts 326°
2026-05-05 17:40 52.56400 -1.16879 22775 ft 370 kts 326°
2026-05-05 17:41 52.58581 -1.19082 22343 ft 366 kts 326°
2026-05-05 17:41 52.60737 -1.21265 21906 ft 361 kts 326°
2026-05-05 17:41 52.62868 -1.23425 21471 ft 358 kts 326°
2026-05-05 17:41 52.64979 -1.25563 21041 ft 354 kts 326°
2026-05-05 17:42 52.67070 -1.27682 20619 ft 351 kts 326°
2026-05-05 17:42 52.68446 -1.29080 20327 ft 350 kts 326°
2026-05-05 17:42 52.71203 -1.31881 19742 ft 348 kts 326°
2026-05-05 17:42 52.73282 -1.33995 19294 ft 352 kts 326°
2026-05-05 17:43 52.75363 -1.36116 18848 ft 351 kts 326°
2026-05-05 17:43 52.77437 -1.38227 18402 ft 349 kts 326°
2026-05-05 17:43 52.79471 -1.40302 17918 ft 348 kts 326°
2026-05-05 17:43 52.81517 -1.42398 17481 ft 344 kts 326°
2026-05-05 17:44 52.83544 -1.44475 17047 ft 341 kts 326°
2026-05-05 17:44 52.85550 -1.46534 16608 ft 338 kts 326°
2026-05-05 17:44 52.87539 -1.48580 16178 ft 335 kts 326°
2026-05-05 17:44 52.89515 -1.50607 15752 ft 333 kts 326°
2026-05-05 17:45 52.91479 -1.52619 15328 ft 331 kts 326°
2026-05-05 17:45 52.93430 -1.54620 14912 ft 329 kts 326°
2026-05-05 17:45 52.95368 -1.56612 14495 ft 327 kts 326°
2026-05-05 17:45 52.97296 -1.58600 14075 ft 325 kts 327°
2026-05-05 17:46 52.99212 -1.60581 13640 ft 324 kts 327°
2026-05-05 17:46 53.01117 -1.62555 13215 ft 321 kts 327°
2026-05-05 17:46 53.03005 -1.64509 12807 ft 318 kts 327°
2026-05-05 17:46 53.04853 -1.66497 12403 ft 314 kts 321°
2026-05-05 17:47 53.06430 -1.68957 11995 ft 310 kts 310°
2026-05-05 17:47 53.07827 -1.71674 11662 ft 306 kts 310°
2026-05-05 17:47 53.09187 -1.74308 11529 ft 294 kts 310°
2026-05-05 17:47 53.10499 -1.76845 11357 ft 286 kts 310°
2026-05-05 17:48 53.11781 -1.79335 11090 ft 282 kts 310°
2026-05-05 17:48 53.13054 -1.81811 10704 ft 281 kts 310°
2026-05-05 17:48 53.14328 -1.84287 10310 ft 281 kts 310°
2026-05-05 17:48 53.15595 -1.86750 9919 ft 280 kts 310°
2026-05-05 17:49 53.16862 -1.89214 9466 ft 281 kts 310°
2026-05-05 17:49 53.18124 -1.91671 9083 ft 278 kts 310°
2026-05-05 17:49 53.19380 -1.94129 8686 ft 277 kts 310°
2026-05-05 17:49 53.20625 -1.96567 8334 ft 274 kts 310°
2026-05-05 17:50 53.21838 -1.98936 8208 ft 264 kts 310°
2026-05-05 17:50 53.22947 -2.01299 8050 ft 257 kts 298°
2026-05-05 17:50 53.23414 -2.04233 7833 ft 267 kts 271°
2026-05-05 17:50 53.23058 -2.07205 7588 ft 264 kts 252°
2026-05-05 17:51 53.22437 -2.10061 7349 ft 260 kts 250°
2026-05-05 17:51 53.21801 -2.12875 7054 ft 259 kts 251°
2026-05-05 17:51 53.21157 -2.15682 6757 ft 259 kts 250°
2026-05-05 17:51 53.20515 -2.18496 6464 ft 260 kts 250°
2026-05-05 17:52 53.19874 -2.21318 6141 ft 259 kts 250°
2026-05-05 17:52 53.19244 -2.24127 5830 ft 258 kts 250°
2026-05-05 17:52 53.18619 -2.26924 5521 ft 257 kts 250°
2026-05-05 17:52 53.17997 -2.29714 5204 ft 256 kts 250°
2026-05-05 17:53 53.17377 -2.32490 4902 ft 255 kts 250°
2026-05-05 17:53 53.16762 -2.35256 4590 ft 254 kts 250°
2026-05-05 17:53 53.16144 -2.37997 4328 ft 250 kts 250°
2026-05-05 17:53 53.15531 -2.40671 4137 ft 243 kts 250°
2026-05-05 17:54 53.15205 -2.43343 3976 ft 229 kts 276°
2026-05-05 17:54 53.15721 -2.45702 3793 ft 211 kts 311°
2026-05-05 17:54 53.16754 -2.47359 3588 ft 204 kts 323°
2026-05-05 17:54 53.17854 -2.48793 3378 ft 195 kts 325°
2026-05-05 17:55 53.18894 -2.50103 3233 ft 180 kts 326°
2026-05-05 17:55 53.19889 -2.51260 3150 ft 170 kts 340°
2026-05-05 17:55 53.21036 -2.51430 3062 ft 167 kts
2026-05-05 17:55 53.22160 -2.50951 3009 ft 167 kts 18°
2026-05-05 17:56 53.23250 -2.50295 3012 ft 167 kts 21°
2026-05-05 17:56 53.24243 -2.49371 2952 ft 159 kts 41°
2026-05-05 17:56 53.24963 -2.48013 2823 ft 156 kts 51°
2026-05-05 17:56 53.25642 -2.46619 2616 ft 154 kts 51°
2026-05-05 17:57 53.26308 -2.45251 2419 ft 153 kts 50°
2026-05-05 17:57 53.26988 -2.43853 2210 ft 153 kts 50°
2026-05-05 17:57 53.27648 -2.42498 2004 ft 152 kts 50°
2026-05-05 17:57 53.28304 -2.41149 1802 ft 145 kts 50°
2026-05-05 17:58 53.28920 -2.39883 1598 ft 138 kts 50°
2026-05-05 17:58 53.29518 -2.38653 1413 ft 134 kts 50°
2026-05-05 17:58 53.30106 -2.37442 1228 ft 134 kts 50°
2026-05-05 17:58 53.30693 -2.36232 1023 ft 135 kts 50°
2026-05-05 17:59 53.31285 -2.35011 840 ft 136 kts 51°
2026-05-05 17:59 53.31886 -2.33766 670 ft 138 kts 51°
2026-05-05 17:59 53.32484 -2.32534 501 ft 137 kts 51°
2026-05-05 17:59 53.33081 -2.31306 312 ft 135 kts 52°
2026-05-05 18:00 53.33468 -2.30507 239 ft 129 kts 52°
2026-05-05 18:00 53.33957 -2.29493 226 ft 86 kts 51°
2026-05-05 18:00 53.34226 -2.28938 228 ft 42 kts 52°
2026-05-05 18:00 53.34400 -2.28575 226 ft 38 kts 51°
2026-05-05 18:01 53.34564 -2.28284 231 ft 30 kts 34°
2026-05-05 18:01 53.34743 -2.28140 231 ft 23 kts 20°
2026-05-05 18:01 53.34869 -2.28055 229 ft 16 kts 32°
2026-05-05 18:01 53.34944 -2.27922 230 ft 15 kts 51°
2026-05-05 18:02 53.35010 -2.27784 229 ft 16 kts 51°
2026-05-05 18:02 53.35072 -2.27656 233 ft 12 kts 51°
2026-05-05 18:02 53.35130 -2.27535 234 ft 17 kts 52°
2026-05-05 18:02 53.35203 -2.27382 238 ft 15 kts 51°
2026-05-05 18:03 53.35268 -2.27249 239 ft 14 kts 49°
2026-05-05 18:03 53.35337 -2.27190 244 ft 9 kts
2026-05-05 18:03 53.35346 -2.27191 245 ft 0 kts 355°
2026-05-05 18:04 53.35391 -2.27214 246 ft 15 kts 328°
2026-05-05 18:04 53.35490 -2.27339 249 ft 18 kts 318°
2026-05-05 18:04 53.35580 -2.27467 245 ft 14 kts 320°
2026-05-05 18:04 53.35620 -2.27522 246 ft 2 kts 321°
2026-05-05 18:05 53.35621 -2.27523 246 ft 0 kts 321°
2026-05-05 18:05 53.35624 -2.27527 246 ft 4 kts 321°
2026-05-05 18:05 53.35691 -2.27609 247 ft 18 kts 333°
2026-05-05 18:06 53.35793 -2.27699 251 ft 15 kts 317°
2026-05-05 18:06 53.35838 -2.27782 252 ft 14 kts 310°
2026-05-05 18:06 53.35930 -2.27850 255 ft 10 kts 354°
2026-05-05 18:06 53.36014 -2.27927 255 ft 16 kts 320°
2026-05-05 18:07 53.36097 -2.28053 255 ft 16 kts 316°
2026-05-05 18:07 53.36174 -2.28181 255 ft 15 kts 314°
2026-05-05 18:07 53.36246 -2.28304 255 ft 15 kts 314°
2026-05-05 18:07 53.36315 -2.28422 255 ft 14 kts 316°
2026-05-05 18:08 53.36398 -2.28481 255 ft 13 kts 345°
2026-05-05 18:08 53.36466 -2.28566 255 ft 12 kts 314°
2026-05-05 18:08 53.36523 -2.28662 255 ft 11 kts 315°
2026-05-05 18:08 53.36587 -2.28768 255 ft 15 kts 318°
2026-05-05 18:09 53.36657 -2.28736 255 ft 11 kts 40°
2026-05-05 18:09 53.36708 -2.28652 255 ft 10 kts 44°
2026-05-05 18:09 53.36759 -2.28614 255 ft 7 kts 336°
2026-05-05 18:09 53.36792 -2.28659 255 ft 6 kts 315°
2026-05-05 18:10 53.36808 -2.28687 255 ft 0 kts 315°